Погода в Жердевке

Погода в Жердевке : погода сейчас, прогноз погоды и архив. Всё, что Вы хотите узнать о погоде в Жердевке!

Хотите узнать прогноз погоды в Жердевке? Тогда Вам сюда: Погода в Жердевке

Поиск расширенной информации на нашем сайте:

Полезная информация: Информация Разработка элементов экипировки здесь.

Другие новости

Новости СМИ2

Главная страница сайта

Новости сайта

02.10.2013

Напоминаем, что на нашем новом сайте вы можете получить высокодетализированные прогнозы погоды по пунктам России, СНГ и мира (включающие важные для авиации метеовеличины, такие как направление и скорость ветра, видимость, явления погоды, количество и форма облачности, нижняя и верхняя граница облачности), а также ознакомиться с разнообразными материалами по авиационной метеорологии и подборкой полезных ссылок на эту тему.

Сайт Метеоцентр.Азия посвящён разработке технологий оптимизации авиаметеорологического обслуживания, включая проектирование и перспективное создание нескольких автоматизированных авиаметеорологических систем:
- система выпуска высокодетальных прогностических карт явлений погоды для нижнего воздушного пространства по России и ближнему зарубежью;
- система верификации прогнозов TAF (выпускаемых синоптиками официальных АМСГ РФ и ближнего зарубежья) и AUTOTAF (выпускаемых сайтом Метеоцентр.Азия) - выявление ошибок, онлайн-сопоставление с фактической погодой METAR, автоматическое внесение коррективов в прогнозы при резком отклонении фактической погоды от прогноза, подсчёт оправдываемости прогнозов по элементам и в целом;
- система обработки, анализа и отображения авиаметеорологической информации для применения провайдерами метеорологической информации.

Рекомендуем: Цена пластиковые окна расчет стоимости окон cmkbadpat окна.

Погода в Жердевке - сегодня

Время (UTC), дата Ветер
(°,м/с) 
Видим.   Явления Облачность Т
(°С)
Тd
(°С)
f(%) Тe
(°С)
Pmin
(гПа)
dP
(гПа)
Po
(мм)
O2
(г/м3)
Тmin Tmax R s Состояние
почвы
06 17.02.17 190 (Ю) 10 км    ясно 
-20.6 -23.1 80 -25  1029.7  -0.7  757  332           
09 17.02.17 220 (ЮЗ) 20000 м  {снег}  8/0 средняя 
[Ac und]
-11.8 -14.5 80 -15  1027.3  -1.7  756  320           
12 17.02.17 200 (Ю) 20000 м  {снег}  9/0 средняя 
[Ac und]
-7.8 -12.3 70 -12  1024.5  -2.4  754  314           
15 17.02.17 190 (Ю) 7{10}  20000 м    10/0 средняя 
[As op]
-7.3 -11.6 71 -13  1022  -2.4  752  313    -7.1  0.0     
18 17.02.17 200 (Ю) 6{11}  20000 м  {снег}  10/0 средняя 
[As op]
-7.4 -10 82 -12  1020.9  -1.1  751  312           
21 17.02.17 220 (ЮЗ) 20000 м    10/0 средняя 
[As op]
-6.8 -9.2 83 -11  1018.9  -2  750  311           
00 18.02.17 220 (ЮЗ) 20000 м    10/0 средняя 
[As op]
-5.8 -8.4 82 -10  1017.3  -1.4  749  309           
03 18.02.17 230 (ЮЗ) 10 км  {снег}  10/0 средняя 
[As op]
-5.1 -7.6 83 -8  1015.9  -1.4  748  308  -7.8    0.0  38  равномерный
сухой снег
100% 
06 18.02.17 240 (ЮЗ) 4000 м  слаб. снег  10/10 360 м 
[Frnb|Ns]
-2.8 -4.8 86 -6  1015  -0.7  747  305           
09 18.02.17 250 (З) 4000 м  в посл. час снег  10/10 400 м 
[Frnb|Ns]
-0.1 -1.8 88 -3  1014.7  -0.1  747  301           
12 18.02.17 250 (З) 6{11}  4000 м  дымка{снег}  10/10 360 м 
[St]
+1.5 -0.5 87 -2  1014.1  -0.4  747  299           
15 18.02.17 250 (З) 5{11}  4000 м  дымка  10/10 400 м 
[St]
+1 -0.7 88 -2  1014.9  0.6  747  300    +1.6  0.2     
18 18.02.17 260 (З) 6-10{10}  10 км    10/0 средняя 
[As op]
+1 -1.6 83 -2  1015.1  0.2  747  300           
21 18.02.17 260 (З) 6{11}  10 км    10/0 средняя 
[As op]
+1.1 -1.5 83 -2  1015.3  0.2  748  300           
00 19.02.17 260 (З) 7-10{11}  10 км    10/0 средняя 
[As op]
+1.1 -1.2 85 -3  1015.8  0.5  748  300           
03 19.02.17 280 (З) 6-10{11}  10 км    10/0 средняя 
[As op]
+1.2 -0.8 86 -2  1017.3  1.5  749  301  +1      33  равномерный
мокрый или
старый снег
100% 
06 19.02.17 270 (З) 5{11}  4000 м  слаб. морось  10/10 300 м 
[St]
+1 -0.7 88 -2  1018.6  1.2  750  301           
09 19.02.17 270 (З) 10 км    10/10 330 м 
[St]
+1.7 -2.1 76 -1  1019.7  1.3  751  301           
12 19.02.17 250 (З) 10 км    10/10 330 м 
[St]
+1.5 -1.3 82 -1  1019.7  751  301           
15 19.02.17 260 (З) 6{11}  10 км    10/10 300 м 
[St]
+1.2 -2.6 76 -2  1019.5  -0.4  751  301    +2  0.0     
18 19.02.17 260 (З) 7-12{14}  10 км    9/9 630 м 
[Sc]
+0.7 -3.2 75 -3  1019.1  -0.4  750  302           
21 19.02.17 250 (З) 6{12}  10 км    ясно 
-0.2 -3.3 80 -4  1018.3  -0.8  750  303           
00 20.02.17 250 (З) 7-13{14}  10 км    10/10 600 м 
[Sc]
+0.8 -2.1 81 -3  1017.1  -1.1  749  301           
03 20.02.17 260 (З) 8-13{14}  10 км    10/10 630 м 
[Sc]
+1.3 -3.2 72 -3  1016.3  -0.8  748  300  -0.6      30  равномерный
мокрый или
старый снег
100% 
06 20.02.17 260 (З) 9-14{16}  20000 м    8/8 660 м 
[Sc]
+0.9 -3 75 -3  1015.2  -1.1  748  301           
Время (UTC), дата Ветер
(°,м/с) 
Видим.   Явления Облачность Т
(°С)
Тd
(°С)
f(%) Тe
(°С)
Pmin
(гПа)
dP
(гПа)
Po
(мм)
O2
(г/м3)
Тmin Tmax R s Состояние
почвы

Для получения пояснительной информации подведите курсор к названию столбца.

ПОГОДА в Жердевке - архив

Всё, что Вы хотите узнать о погоде в Жердевке - удобно и подробно!

Выберите нужную дату (начиная с 1 января 2015* года) и нажмите кнопку "Найти".
Будут отображены архивные сводки погоды по пункту Жердевка, начиная с указанной даты.


Отображать данные в формате CSV (для использования в таблицах Excel)


Внимание! Наш архив погоды предназначен исключительно для личного некоммерческого использования в познавательных целях. Если Вам необходимы официальные справки о состоянии погоды (для производственных, юридических, коммерческих и т.п. целей), обращайтесь в органы Росгидромета.

*Примечание: данная дата относится к архиву по метеостанциям СССР (Россия, СНГ, Балтия).
Архив по метеостанциям Зарубежной Европы и Азии (кроме Китая) хранится 10 дней, по другим регионам земного шара (Китай, Африка, Америка, Австралия, Океания) - 1 день.

Жердевка - район местоположения метеостанции


Название, широта, долгота, высота метеостанции:
Жердевка 51.8°ш. 41.5°д. 147 м над ур. моря [Российская Федерация]

Дополнительная информация

В oтличие oт бoльшинства пoгoдных сайтoв мы публикуем пoдрoбную метеoинфoрмацию в детальнoм прoфессиoнальнoм фoрмате.

Характеристики температуры и влажнoсти вoздуха измеряются на высoте 2 м в тени вдали oт зданий и деревьев.
Скoрoсть ветра измеряется на высoте 10 м (на урoвне рoста челoвека скoрoсть ветра ниже в 1.5-2 раза). Если метеoстанция нахoдится в гoрoде или в лесу, тo скoрoсть ветра занижена на 2-4 м/с пo сравнению с oткрытым местoм. Скoрoсть ветра над акватoриями крупных рек и oзёр, а также на вершинах хoлмoв на 2-5 м/с выше, чем в oбычных услoвиях.
Атмoсфернoе давление в разных тoчках местнoсти мoжет значительнo oтличаться oт давления на метеoстанции, в зависимoсти oт услoвий рельефа (при пoдъёме на 10 м давление пoнижается примернo на 1 мм рт.ст.).